Weather History for 60230 - October, 2012

Change the Weather History Date:

Monday, October 8, 2012

  Actual Average Record
Temperature  
Mean Temperature 83 °F -  
Max Temperature 100 °F 78 °F - ()
Min Temperature 66 °F 56 °F - ()
Cooling Degree Days 18    
Growing Degree Days 33 (Base 50)    
Moisture  
Dew Point 56 °F    
Average Humidity 44    
Maximum Humidity 73    
Minimum Humidity 11    
Precipitation  
Precipitation 0.00 in 0.04 in - ()
Sea Level Pressure  
Sea Level Pressure 30.10 in    
Wind  
Wind Speed 2 mph ()    
Max Wind Speed 12 mph    
Max Gust Speed -    
Visibility 6.1 miles    
Events      
T = Trace of Precipitation, MM = Missing Value Source: Averaged Metar Reports

Daily Weather History Graph

Daily Weather History Graph

Search for Another Location

Airport or City:

Trip Planner

Search our weather history database for the weather conditions in past years. The results will help you decide how hot, cold, wet, or windy it might be!

Date:

Astronomy

Oct. 08, 2012 Rise Set
Actual Time 6:30 AM WET 6:08 PM WET
Civil Twilight 6:06 AM WET 6:32 PM WET
Nautical Twilight 5:38 AM WET 7:00 PM WET
Astronomical Twilight 5:09 AM WET 7:28 PM WET
Moon No Moon Rise 1:25 PM WET (10/8)
Length of Visible Light 12h 26m
Length of Day
11h 37m
Waning Gibbous, 48% of the Moon is Illuminated
Oct 8
Waning Gibbous
Oct 15
New
Oct 22
First Quarter
Oct 29
Full
Nov 7
Last Quarter

Hourly Weather History & Observations

Time (WET) Temp. Heat Index Dew Point Humidity Pressure Visibility Wind Dir Wind Speed Gust Speed Precip Events Conditions
12:00 AM 72 °F - 58 °F 53% 30.11 in 6 mi Calm Calm - -  
12:00 AM 71.6 °F - 59.0 °F 64% 30.15 in - Calm Calm - N/A   Clear
12:30 AM 69.8 °F - 59.0 °F 68% 30.15 in - Calm Calm - N/A   Clear
1:00 AM 69.8 °F - 59.0 °F 68% 30.15 in - Calm Calm - N/A   Clear
1:30 AM 71.6 °F - 59.0 °F 64% 30.15 in - Calm Calm - N/A   Clear
2:00 AM 69.8 °F - 59.0 °F 68% 30.15 in - Calm Calm - N/A   Clear
2:30 AM 69.8 °F - 59.0 °F 68% 30.12 in - Calm Calm - N/A   Clear
3:00 AM 70 °F - 58 °F 58% 30.08 in 6 mi South 4.6 mph - -  
3:00 AM 69.8 °F - 59.0 °F 68% 30.12 in - South 4.6 mph - N/A   Clear
3:30 AM 71.6 °F - 57.2 °F 60% 30.12 in - South 3.5 mph - N/A   Clear
4:00 AM 69.8 °F - 57.2 °F 64% 30.12 in - South 4.6 mph - N/A   Clear
4:30 AM 68.0 °F - 57.2 °F 68% 30.12 in - South 3.5 mph - N/A   Clear
5:00 AM 68.0 °F - 57.2 °F 68% 30.12 in - Calm Calm - N/A   Clear
5:30 AM 68.0 °F - 57.2 °F 68% 30.12 in - Calm Calm - N/A   Clear
6:00 AM 68 °F - 57 °F 60% 30.09 in 6 mi Calm Calm - -  
6:00 AM 68.0 °F - 57.2 °F 68% 30.12 in - Calm Calm - N/A   Clear
6:30 AM 66.2 °F - 57.2 °F 73% 30.12 in - ESE 3.5 mph - N/A   Clear
7:00 AM 68.0 °F - 57.2 °F 68% 30.12 in - Calm Calm - N/A   Clear
7:30 AM 69.8 °F - 59.0 °F 68% 30.15 in - Calm Calm - N/A   Clear
8:00 AM 75.2 °F - 59.0 °F 57% 30.15 in - Calm Calm - N/A   Clear
8:30 AM 78.8 °F - 57.2 °F 47% 30.15 in - East 4.6 mph - N/A   Clear
9:00 AM 80 °F - 56 °F 34% 30.08 in 6 mi East 1.2 mph - -   Clear
9:00 AM 80.6 °F 80.8 °F 57.2 °F 45% 30.15 in - Variable 2.3 mph - N/A   Clear
9:30 AM 84.2 °F 83.5 °F 57.2 °F 40% 30.15 in - Calm Calm - N/A   Clear
10:00 AM 86.0 °F 84.9 °F 57.2 °F 37% 30.15 in - Calm Calm - N/A   Clear
10:30 AM 89.6 °F 88.9 °F 59.0 °F 36% 30.15 in - Calm Calm - N/A   Clear
11:00 AM 89.6 °F 88.1 °F 57.2 °F 33% 30.12 in - Calm Calm - N/A   Clear
11:30 AM 91.4 °F 89.4 °F 55.4 °F 29% 30.12 in 6.2 mi North 3.5 mph - N/A   Unknown
12:00 PM 91.4 °F 89.4 °F 55.4 °F 29% 30.12 in - ENE 3.5 mph - N/A   Clear
12:30 PM 93.2 °F 91.3 °F 55.4 °F 28% 30.09 in - NNE 3.5 mph - N/A   Clear
1:00 PM 95.0 °F 92.7 °F 53.6 °F 25% 30.09 in 6.2 mi NNE 4.6 mph - N/A   Partly Cloudy
1:30 PM 96.8 °F 95.1 °F 55.4 °F 25% 30.06 in 6.2 mi NNE 5.8 mph - N/A   Partly Cloudy
2:00 PM 98.6 °F - 51.8 °F 21% 30.06 in 6.2 mi North 4.6 mph - N/A   Partly Cloudy
2:30 PM 98.6 °F - 51.8 °F 21% 30.04 in 6.2 mi NNE 3.5 mph - N/A   Partly Cloudy
3:00 PM 99 °F - 50 °F 11% 29.92 in 6 mi North 4.6 mph - -   Scattered Clouds
3:00 PM 98.6 °F - 50.0 °F 19% 30.04 in 6.2 mi North 3.5 mph - N/A   Partly Cloudy
3:30 PM 100.4 °F - 48.2 °F 17% 30.04 in 6.2 mi NNE 4.6 mph - N/A   Partly Cloudy
4:00 PM 98.6 °F - 50.0 °F 19% 30.04 in 6.2 mi North 3.5 mph - N/A   Partly Cloudy
4:30 PM 98.6 °F - 48.2 °F 18% 30.04 in 6.2 mi Calm Calm - N/A   Partly Cloudy
5:00 PM 96.8 °F - 46.4 °F 18% 30.04 in 6.2 mi NW 4.6 mph - N/A   Partly Cloudy
5:30 PM 96.8 °F - 48.2 °F 19% 30.06 in 6.2 mi NNW 3.5 mph - N/A   Partly Cloudy
6:00 PM 94 °F - 48 °F 12% 29.94 in 6 mi NNE 5.8 mph - -   Scattered Clouds
6:00 PM 95.0 °F - 48.2 °F 20% 30.06 in 6.2 mi North 5.8 mph - N/A   Partly Cloudy
6:30 PM 91.4 °F - 50.0 °F 24% 30.06 in 6.2 mi North 6.9 mph - N/A   Partly Cloudy
7:00 PM 87.8 °F 87.1 °F 59.0 °F 38% 30.06 in 6.2 mi North 11.5 mph - N/A   Partly Cloudy
7:30 PM 86.0 °F 85.4 °F 59.0 °F 40% 30.09 in 6.2 mi NNE 9.2 mph - N/A   Partly Cloudy
8:00 PM 84.2 °F 83.8 °F 59.0 °F 42% 30.09 in - NNE 9.2 mph - N/A   Clear
8:30 PM 84.2 °F 83.5 °F 57.2 °F 40% 30.12 in - NNE 4.6 mph - N/A   Clear
9:00 PM 82 °F - 57 °F 32% 30.04 in 6 mi East 4.6 mph - -   Clear
9:00 PM 82.4 °F 82.0 °F 57.2 °F 42% 30.12 in - East 3.5 mph - N/A   Clear
9:30 PM 82.4 °F 82.0 °F 57.2 °F 42% 30.12 in - ESE 3.5 mph - N/A   Clear
10:00 PM 82.4 °F 81.7 °F 55.4 °F 39% 30.12 in - East 1.2 mph - N/A   Clear
10:30 PM 78.8 °F - 57.2 °F 47% 30.12 in - Calm Calm - N/A   Clear
11:00 PM 75.2 °F - 59.0 °F 57% 30.12 in - Calm Calm - N/A   Clear
11:30 PM 75.2 °F - 59.0 °F 57% 30.12 in - WSW 4.6 mph - N/A   Clear